Probability
0 0 0 0 0 0 0 0 0 0 1 4 9 13 14 10 5 3 1 4 14 20 14 9 8 6 4 2 0 1 2 2 2 3 5 6 6 6 4 3 2 2 1 0 0 0 0 0 0
0 0 0 0 0 0 0 0 0 1 3 7 13 19 21 17 11 7 4 8 21 26 19 12 9 7 5 3 1 0 1 1 1 2 3 4 5 4 2 1 1 1 0 0 0 0 0 0 0
0 0 0 0 0 0 0 0 2 6 9 12 17 22 24 20 16 13 10 17 28 32 25 17 13 10 6 3 1 0 0 0 0 1 1 1 2 1 0 0 0 0 0 0 0 0 0 0 0
0 0 0 0 0 0 0 1 4 10 13 17 21 26 25 21 20 20 20 26 34 36 30 24 19 15 10 5 2 1 1 0 0 0 0 0 1 1 1 1 1 1 0 0 0 0 0 0 0
0 0 0 0 0 0 0 2 6 11 16 22 29 33 30 25 24 26 25 29 35 36 33 29 27 24 18 11 6 3 1 0 0 0 0 1 1 2 2 2 2 2 1 0 0 0 0 0 0
0 0 0 0 0 0 1 4 8 14 20 28 35 37 32 27 26 26 24 26 30 32 32 31 29 28 25 20 12 6 2 1 0 1 1 2 2 3 3 1 1 2 1 0 0 0 0 0 0
0 0 0 0 0 1 3 8 12 17 24 31 38 40 36 31 28 27 24 25 28 29 29 28 27 26 27 24 17 10 5 2 1 2 2 2 3 3 2 1 1 1 1 0 0 0 0 0 1
0 0 0 0 0 1 5 12 17 22 29 36 40 42 39 35 31 30 28 28 28 26 24 23 21 21 23 22 18 14 9 5 2 2 2 3 3 2 1 1 1 1 1 1 1 1 0 0 1
0 0 0 0 0 3 8 13 19 26 35 42 44 43 39 33 28 28 27 25 23 20 17 16 16 17 18 17 15 13 11 7 4 2 3 5 4 2 1 1 2 3 2 2 2 1 0 0 1
0 0 0 0 3 7 11 14 17 26 36 42 44 43 36 29 26 25 20 17 15 13 12 10 10 13 15 15 13 12 11 9 7 6 5 6 5 2 1 2 3 4 3 3 3 3 2 1 0
0 0 1 2 5 10 13 14 17 24 29 33 36 38 34 29 27 24 17 12 9 9 9 8 7 9 11 12 12 11 11 10 10 8 7 5 3 1 1 3 4 4 4 5 5 5 5 2 1
1 1 2 4 6 9 12 16 20 23 22 22 25 28 27 26 25 23 19 13 10 9 9 10 9 8 9 11 11 10 10 10 10 8 5 3 2 1 1 3 4 3 5 7 8 7 6 2 0
1 1 3 4 5 6 9 16 20 20 18 18 18 19 19 19 20 21 19 16 13 12 11 11 10 8 10 12 11 10 10 11 10 7 5 3 3 2 1 2 3 3 4 7 8 7 5 1 0
1 1 1 2 2 3 7 13 16 15 15 16 14 13 14 15 16 18 17 15 14 13 14 12 11 10 10 11 11 10 11 12 10 7 5 3 2 2 2 2 3 2 2 4 6 5 3 1 0
0 0 1 1 1 2 5 8 9 9 12 13 10 10 12 13 13 14 13 13 13 15 15 13 11 11 10 9 10 11 12 12 9 6 4 3 2 2 2 2 3 2 2 2 2 1 1 0 0
0 0 0 0 0 1 3 5 6 7 9 9 7 7 10 10 10 11 10 9 11 13 13 11 8 8 9 10 11 12 11 10 8 5 3 3 3 3 3 2 1 2 2 1 0 0 0 0 0
0 0 0 0 0 0 1 5 6 7 9 8 6 5 7 8 8 7 6 5 5 7 8 7 6 6 8 11 13 13 12 12 10 7 6 6 5 5 4 2 1 2 3 2 0 0 0 0 0
0 0 0 0 0 0 3 6 6 7 10 11 8 6 7 8 7 6 6 5 4 3 4 5 5 6 8 10 12 12 14 18 17 14 11 9 7 8 7 4 2 2 2 1 0 0 0 0 0
0 0 0 0 0 1 5 8 7 7 10 12 10 8 9 10 8 6 7 9 7 5 6 7 7 7 7 8 8 10 14 19 20 17 14 11 9 10 10 7 4 2 1 0 0 1 1 1 1
0 0 0 0 0 1 6 9 8 8 11 13 12 10 10 9 7 5 6 9 9 8 8 8 8 9 9 7 7 8 12 14 14 13 12 11 11 11 10 8 6 5 3 2 1 2 3 3 3
0 0 0 0 0 1 3 6 8 9 14 16 13 10 8 7 5 3 3 5 7 7 7 8 8 8 9 9 9 10 10 10 8 7 8 10 9 8 7 6 6 5 5 4 3 3 4 4 3
0 0 0 0 0 0 1 3 5 10 16 17 13 9 7 6 4 2 1 2 3 4 5 5 6 6 6 8 11 12 10 7 5 4 6 6 5 4 4 5 5 5 4 3 2 2 3 3 2
0 0 0 0 0 0 0 1 3 9 16 16 12 9 7 6 4 2 1 1 1 1 2 3 3 3 3 5 8 10 9 7 5 4 4 3 2 2 3 4 5 5 4 3 2 1 1 2 1
0 0 0 0 0 0 0 0 1 5 12 16 14 8 6 5 4 3 1 0 0 0 0 1 1 1 1 1 3 4 5 5 5 5 3 2 1 1 2 3 4 5 4 3 2 1 1 1 1
0 0 0 0 0 0 0 0 1 3 9 15 13 8 4 3 2 2 1 0 0 0 0 0 0 0 0 0 0 1 2 4 4 4 2 1 0 1 2 2 3 3 3 1 1 0 0 0 0
0 0 0 0 0 0 0 0 1 5 10 14 11 7 4 2 1 1 1 0 0 0 0 0 0 0 0 0 0 0 1 2 2 2 1 0 0 0 1 1 1 2 1 0 0 0 0 0 0
0 0 0 0 0 0 0 1 2 6 10 11 8 6 4 2 0 0 0 0 0 0 0 0 0 0 0 0 1 0 0 1 1 1 0 0 0 0 0 0 0 0 0 0 0 0 0 0 0
0 0 0 0 0 0 0 0 1 4 6 6 5 5 4 1 0 0 0 0 0 0 0 0 0 0 0 0 0 0 0 0 0 0 0 0 0 0 0 0 0 0 0 0 0 0 0 0 0
0 0 0 0 0 0 0 0 0 2 3 3 3 4 3 1 0 0 0 0 0 0 0 0 0 0 0 0 0 0 0 0 0 0 0 0 0 0 0 0 0 0 0 0 0 0 0 0 0
0 0 0 0 0 0 0 0 0 1 4 4 4 3 1 0 0 0 0 0 0 0 0 0 0 0 0 0 0 0 0 0 0 0 0 0 0 0 0 0 0 0 0 0 0 0 0 0 0
Wind_Speed
4 3 1 3 6 4 4 7 3 2 3 4 9 11 11 7 5 6 3 13 16 15 12 14 16 16 16 16 16 16 16 16 16 15 15 15 15 14 14 13 12 12 11 11 11 11 11 11 11
2 1 3 5 5 1 7 6 3 2 6 7 11 11 11 8 7 8 6 12 15 14 11 12 16 16 16 16 15 15 15 15 15 15 14 14 14 13 12 12 12 11 10 10 10 10 10 10 9
2 1 4 4 3 5 6 3 2 3 6 6 7 7 7 6 6 5 9 14 13 12 10 12 17 16 16 15 15 15 15 14 14 14 13 13 12 11 11 11 11 10 9 9 9 9 8 8 8
2 4 4 3 5 7 6 7 1 4 5 6 9 8 5 3 4 10 15 15 14 10 9 12 16 16 16 15 15 14 14 14 13 13 13 12 11 10 10 10 10 9 8 8 8 7 7 6 6
4 4 3 2 6 7 6 6 2 3 4 8 11 9 5 5 12 16 16 15 14 10 8 10 14 15 15 15 14 13 13 12 12 12 11 11 10 9 8 9 9 8 7 7 7 6 5 5 4
4 4 3 3 7 7 5 3 3 7 8 9 11 9 4 6 12 12 13 12 12 11 8 8 13 14 14 13 13 12 11 11 11 10 10 9 8 8 8 8 7 7 6 6 6 5 4 4 3
4 3 2 4 5 6 5 1 3 6 7 5 6 8 5 5 8 11 12 12 11 10 8 6 7 9 11 12 11 11 10 9 9 9 8 8 8 8 8 7 7 6 6 6 5 5 4 3 3
5 3 2 2 2 4 4 2 4 7 7 5 6 9 7 6 10 12 12 12 11 8 6 6 5 5 5 6 10 11 10 9 9 8 8 8 8 7 7 6 6 6 6 6 5 5 5 4 4
3 4 2 3 2 2 2 5 5 6 9 8 8 9 11 14 13 13 13 11 10 8 5 5 5 4 4 5 7 8 8 8 7 6 7 6 3 3 3 5 6 7 6 6 5 5 5 4 4
5 3 6 4 3 2 1 4 4 7 10 10 12 14 15 14 14 14 12 10 8 6 4 4 4 4 4 4 4 3 3 3 3 2 2 1 1 1 3 4 7 7 7 6 6 7 6 4 2
5 6 4 2 2 4 4 5 5 10 8 8 14 15 14 15 13 13 11 8 7 5 4 4 3 3 3 3 3 2 2 2 2 2 2 1 1 0 0 0 2 3 4 3 3 4 2 2 2
3 5 4 3 2 3 5 5 7 9 9 11 14 14 13 13 12 11 10 8 6 6 3 3 3 3 3 3 3 2 2 2 2 2 2 1 1 1 1 1 1 1 1 1 1 2 2 3 3
4 5 3 3 4 6 10 9 10 10 13 16 17 16 14 12 11 11 9 6 5 5 4 3 4 4 3 2 2 2 2 2 2 2 1 1 1 1 1 1 1 1 1 2 2 2 2 3 3
5 4 3 3 4 5 11 7 8 8 13 16 17 14 13 11 11 10 8 6 5 4 4 4 4 3 4 2 1 1 2 3 2 1 1 2 1 0 0 0 0 1 2 2 2 2 2 2 1
3 3 1 1 3 4 10 7 6 10 13 15 15 13 12 10 9 9 7 6 5 4 4 4 4 3 4 3 1 2 2 3 2 1 0 1 1 0 0 0 1 1 1 1 1 1 1 1 1
1 3 1 3 3 3 8 6 6 10 15 14 13 13 12 9 8 8 7 6 4 3 4 4 4 3 3 3 1 2 3 3 2 1 1 1 1 1 0 0 1 1 0 1 1 1 1 1 1
3 2 3 4 2 3 7 7 8 9 14 14 13 12 11 10 8 7 7 6 5 5 4 5 4 3 3 2 2 3 3 3 2 2 2 1 1 1 0 0 1 1 1 0 1 1 1 1 1
3 2 3 5 4 5 6 6 8 9 12 13 12 12 11 10 8 7 7 7 6 5 5 5 4 3 2 2 3 3 4 3 3 2 2 2 2 2 2 1 2 1 1 1 0 0 1 1 1
4 3 4 5 4 6 7 9 9 9 10 11 10 11 11 9 8 8 7 7 7 6 6 5 4 3 2 2 2 2 2 2 2 2 3 3 3 3 3 2 3 2 1 1 1 0 1 0 1
5 4 3 2 1 6 6 6 6 8 10 12 12 11 11 10 9 8 7 7 7 6 6 6 5 4 4 2 1 1 2 2 2 2 3 3 4 4 3 3 2 3 2 2 2 1 0 0 1
3 4 3 2 2 5 7 3 2 4 6 8 10 10 10 11 10 8 8 7 6 6 5 5 5 5 5 4 3 3 3 3 3 3 2 3 3 4 3 3 3 3 2 2 1 1 0 1 1
3 3 5 5 4 1 4 3 2 4 6 7 9 9 9 9 9 8 8 7 6 5 5 6 6 6 5 5 4 4 3 2 2 1 2 3 4 4 3 3 3 3 2 2 2 1 0 1 1
5 2 4 4 5 3 3 4 3 4 6 8 9 10 9 9 10 9 8 7 6 5 5 5 6 6 6 5 4 4 4 2 2 2 3 3 3 4 4 3 3 3 2 2 3 2 1 0 1
3 5 7 6 6 2 2 3 4 4 8 9 9 10 11 10 9 9 8 8 6 5 5 5 6 6 5 6 5 5 4 4 4 3 3 2 2 3 4 4 3 3 3 3 2 2 2 1 1
5 7 5 6 4 2 2 2 4 4 5 10 12 11 10 10 9 9 8 7 6 5 4 4 5 5 5 5 5 5 4 4 4 2 2 2 2 3 4 4 3 3 3 3 3 3 3 2 1
1 8 7 4 3 3 2 1 3 0 5 9 11 11 11 10 8 8 8 7 6 5 4 4 4 4 4 4 4 4 4 3 2 2 2 2 2 2 3 3 4 3 3 4 3 3 3 2 2
2 2 6 7 3 1 2 2 2 4 7 9 11 11 10 9 9 9 8 7 6 5 5 4 4 4 4 4 4 4 4 3 3 3 3 2 2 2 3 3 4 4 4 4 3 3 3 3 2
4 4 5 5 4 1 2 3 4 6 8 9 10 10 9 9 9 8 8 7 6 5 4 4 4 4 4 4 4 4 4 3 3 3 4 3 3 3 4 4 4 4 4 4 3 3 3 3 3
3 2 4 4 5 6 3 5 5 10 10 10 9 9 10 9 9 8 7 7 6 5 5 5 4 4 3 4 4 4 3 3 4 4 3 3 3 4 4 4 4 4 5 4 4 4 4 4 4
3 2 4 4 2 4 4 5 3 7 8 10 10 10 10 10 9 8 7 7 6 5 5 4 3 3 3 3 3 3 3 4 4 4 3 3 4 4 4 4 4 5 5 4 4 4 4 4 4
Wind_Direction
300 289 52 54 51 43 265 254 246 334 28 57 88 98 102 89 118 133 134 137 134 138 141 140 136 132 129 125 122 119 116 114 112 111 110 109 108 108 109 110 110 110 112 112 113 113 112 113 114
299 307 55 60 84 344 272 251 216 211 148 109 81 83 83 73 80 101 112 131 134 135 137 139 138 135 133 129 127 125 123 121 119 117 116 115 113 112 112 113 113 113 114 116 117 117 116 116 117
288 50 82 78 139 197 250 275 154 125 122 98 83 64 75 96 103 105 125 128 126 127 130 139 139 137 135 134 132 131 130 128 126 124 122 120 119 117 118 119 119 119 119 120 121 121 121 122 122
48 49 54 80 247 237 237 269 248 105 74 71 98 73 63 54 104 124 127 128 123 121 125 136 137 137 137 137 137 136 135 134 132 130 129 128 127 126 126 126 125 125 126 127 128 130 131 131 130
65 77 62 306 261 263 257 256 249 117 95 90 97 96 65 44 102 120 125 127 123 117 117 130 134 137 139 141 140 140 140 139 139 138 137 136 136 135 134 133 133 133 135 135 135 139 144 146 149
56 73 97 258 272 288 287 250 126 108 112 102 99 102 79 95 108 115 114 115 118 120 118 124 132 136 138 140 142 143 143 143 143 144 144 143 143 143 143 142 143 144 147 147 148 153 162 167 170
115 106 191 245 291 310 303 322 99 120 102 90 107 99 100 87 96 104 105 107 107 111 113 113 125 133 136 138 139 141 143 144 145 147 150 151 153 156 159 156 155 157 159 162 165 171 179 189 200
150 97 303 282 289 295 305 21 77 92 88 90 84 110 125 122 106 103 99 97 97 96 103 106 112 121 129 136 141 141 143 145 147 150 154 158 163 168 173 171 174 176 179 180 184 189 198 207 218
109 76 270 253 210 246 322 76 66 63 87 73 69 91 111 108 101 98 96 91 92 92 89 102 106 111 123 142 143 141 144 143 143 150 160 158 158 169 179 187 190 194 193 196 200 205 212 217 228
114 157 235 222 175 176 37 83 98 88 78 83 84 87 98 98 99 98 98 98 95 98 99 96 100 107 119 142 124 123 131 129 124 122 142 141 152 199 207 213 207 206 206 209 210 219 223 220 228
166 195 227 258 165 128 94 61 69 105 86 112 118 116 108 103 101 104 105 103 109 115 103 98 105 117 122 115 122 120 121 126 123 120 124 132 134 189 213 211 224 220 223 221 225 231 226 217 217
226 245 219 220 166 108 98 92 70 83 119 117 114 114 105 100 101 108 114 118 123 108 110 111 119 114 112 122 131 134 133 132 128 136 142 128 128 159 175 191 200 207 224 226 224 230 229 233 234
220 248 226 170 109 105 95 92 93 95 111 110 108 103 104 104 102 103 103 105 102 100 83 95 102 103 102 104 123 134 134 131 122 106 101 110 130 172 178 187 202 208 207 198 207 226 232 240 246
219 198 179 154 121 110 105 95 91 117 117 110 107 109 110 109 111 109 108 102 90 79 82 93 88 99 98 94 103 132 138 117 106 118 157 123 112 204 147 121 219 242 232 218 197 211 221 227 232
180 136 84 182 140 141 105 72 103 135 120 112 110 111 111 107 104 101 105 105 101 90 82 94 106 87 94 94 97 115 114 106 106 102 69 83 95 284 94 162 217 241 229 222 213 226 214 215 202
74 100 133 269 163 174 105 121 139 139 127 120 120 121 118 111 103 101 99 94 93 92 80 77 91 88 91 90 98 104 98 100 98 93 65 53 44 13 41 202 247 262 210 177 197 193 198 216 183
22 133 207 270 212 142 107 139 160 150 134 130 128 126 123 122 116 112 105 102 99 89 79 75 63 66 71 81 87 88 89 91 90 83 70 51 38 16 73 191 293 324 358 1 232 178 174 184 164
247 213 215 228 238 129 116 143 157 159 141 137 136 132 128 127 126 116 106 98 89 80 71 66 57 45 55 81 75 70 68 66 64 67 59 47 35 37 43 43 4 16 27 5 17 158 156 171 153
227 233 240 240 209 130 140 144 163 158 141 141 140 138 134 129 118 108 98 89 82 71 65 56 53 36 54 73 76 75 66 60 49 51 54 51 44 44 46 34 21 21 22 349 338 84 110 126 121
247 249 258 301 140 123 125 134 150 149 154 155 151 145 141 131 118 109 97 84 78 74 68 57 47 37 38 47 59 83 93 75 65 52 51 51 47 42 45 36 29 22 20 20 13 30 177 227 153
252 201 172 150 55 84 105 68 99 118 121 137 143 144 144 141 133 125 110 94 82 69 65 66 48 41 38 43 60 63 53 45 39 36 30 27 43 44 38 28 32 26 32 16 354 5 33 258 284
253 214 152 139 112 95 117 149 235 158 135 146 150 149 147 137 131 126 115 102 93 82 69 61 52 43 35 39 66 79 81 73 39 35 41 28 34 33 30 26 26 22 22 10 346 11 308 236 255
214 167 113 113 118 83 41 123 246 154 168 178 165 153 143 138 135 128 122 115 103 89 75 63 55 45 37 41 55 73 72 65 50 46 45 33 22 18 19 24 21 16 10 3 356 342 338 274 244
149 69 51 56 75 77 241 148 227 200 198 177 162 148 139 137 133 124 116 110 98 85 74 66 61 47 39 44 50 64 73 68 59 46 41 28 13 6 11 16 13 10 6 356 347 343 345 310 260
75 80 38 12 23 253 262 133 240 227 182 169 159 146 138 139 136 129 122 114 107 98 84 71 69 52 41 49 49 54 65 70 69 55 47 36 18 5 2 11 9 4 356 354 1 4 354 342 300
152 131 150 181 208 272 351 220 279 232 134 140 141 142 140 139 137 131 126 122 119 111 96 81 75 56 44 54 52 47 52 60 59 48 47 41 24 359 358 8 11 7 1 5 10 11 356 1 354
127 160 167 136 128 92 294 292 336 104 122 135 140 142 145 143 137 130 125 123 122 114 104 94 81 60 55 65 62 53 47 56 59 50 43 33 13 7 11 14 15 8 5 10 15 14 3 7 5
142 157 92 108 133 197 253 236 216 184 173 156 150 151 146 136 128 124 123 122 118 114 106 94 85 72 68 68 63 63 49 49 50 49 40 30 18 19 21 21 21 16 14 17 22 10 4 21 7
14 49 99 113 144 152 208 256 223 188 175 164 160 152 143 135 130 128 127 124 118 107 101 95 84 75 73 70 64 60 49 44 43 40 32 31 26 24 27 25 26 23 19 15 22 20 21 25 18
136 139 129 133 203 159 162 261 295 160 155 149 147 142 137 133 129 128 126 121 115 107 102 98 90 86 83 80 69 63 56 50 46 38 29 34 33 27 30 32 31 29 23 18 29 29 26 31 25